sat.trackr.live / text

‹ back to catalog

PRISMA

NORAD 44072 · 2019-015A

PAYLOAD ACTIVE UNKNOWN

§ Identity

Operator
Country
IT
Launch date
2019-03-22
Launch site
FRGUI
Launch vehicle
Mass (kg)
RCS (m²)

External: N2YO · Heavens-Above · Gunter

§ Orbital elements

Epoch: 2026-09-20T03:59:55.565376Z

Period
97.06 min
Inclination
97.8716°
Eccentricity
0.0001431
Mean motion
14.83669003 rev/d
Perigee alt
616.8 km
Apogee alt
618.8 km
Semi-major
6,995.9 km
B*
8.3709e-5
RAAN
336.5687°
Arg perigee
85.4233°
Mean anomaly
274.7144°
Rev number
40,613

§ Raw data

PRISMA1 44072U 19015A   26263.16661534  .00000638  00000+0  83709-4 0  99912 44072  97.8716 336.5687 0001431  85.4233 274.7144 14.83669003406132

JSON: /api/v1/satellites/44072 · /tle

For live sub-satellite position, see the globe view (requires WebGL).

§ Visibility from observer

Set your observer location to see the next 7 days of passes ≥ 10°. The values pass through the URL so the page stays shareable.

No JS? Fill the form by hand. The geolocation button needs JavaScript.

§ Radio — SatNOGS DB

ModeDescriptionDownlinkUplink
BPSK S-band telemetry 2.284 GHz

1 transmitter · refreshed weekly from db.satnogs.org